Location: Biltmore Gardens
(41.6070°N, 83.4666°W)
Time: 14:03:16
(UTC+00:00)

Cosmos 1980 - Pass Details

Date: 14 July 2020
Orbit: 839 x 847 km, 71.0° (Epoch: 12 August)

Event Time Altitude Azimuth Distance (km) Brightness Sun altitude
Rises 02:42:02 0° 211° (SSW) 3,377 6.7 -14.6°
Reaches altitude 10° 02:44:30 10° 215° (SW) 2,447 6.0 -14.9°
Maximum altitude 02:50:03 64° 296° (WNW) 931 4.2 -15.6°
Drops below altitude 10° 02:55:40 10° 18° (NNE) 2,464 6.5 -16.2°
Sets 02:58:09 0° 22° (NNE) 3,403 7.3 -16.5°
